�N����,�����b,���ԉ��x,���Ԏ��x,��󒲎�,����,�����W
2003/1/1,0:00:00,8.5 ,42.8 ,9.1 ,9.9 ,7.7 
2003/1/1,0:15:00,8.5 ,42.8 ,9.1 ,9.9 ,7.6 
2003/1/1,0:30:00,8.4 ,42.7 ,9.0 ,9.9 ,7.6 
2003/1/1,0:45:00,8.4 ,42.8 ,9.0 ,9.9 ,7.5 
2003/1/1,1:00:00,8.3 ,42.7 ,9.0 ,9.9 ,7.4 
2003/1/1,1:15:00,8.3 ,42.8 ,8.9 ,9.9 ,7.4 
2003/1/1,1:30:00,8.2 ,42.7 ,8.9 ,9.9 ,7.3 
2003/1/1,1:45:00,8.2 ,42.7 ,8.8 ,10.0 ,7.3 
2003/1/1,2:00:00,8.1 ,42.7 ,8.8 ,10.0 ,7.2 
2003/1/1,2:15:00,8.1 ,42.9 ,8.7 ,10.0 ,7.2 
2003/1/1,2:30:00,8.1 ,42.9 ,8.7 ,10.0 ,7.1 
2003/1/1,2:45:00,8.0 ,42.9 ,8.6 ,10.0 ,7.1 
2003/1/1,3:00:00,8.0 ,42.9 ,8.6 ,10.0 ,7.0 
2003/1/1,3:15:00,7.9 ,42.8 ,8.6 ,10.0 ,7.0 
2003/1/1,3:30:00,7.9 ,43.0 ,8.5 ,10.0 ,6.9 
2003/1/1,3:45:00,7.8 ,42.9 ,8.5 ,10.0 ,6.9 
2003/1/1,4:00:00,7.8 ,43.0 ,8.4 ,10.0 ,6.8 
2003/1/1,4:15:00,7.8 ,42.9 ,8.4 ,10.0 ,6.8 
2003/1/1,4:30:00,7.7 ,43.0 ,8.4 ,10.0 ,6.7 
2003/1/1,4:45:00,7.6 ,43.0 ,8.3 ,10.0 ,6.7 
2003/1/1,5:00:00,7.6 ,43.0 ,8.3 ,10.1 ,6.6 
2003/1/1,5:15:00,7.6 ,43.0 ,8.2 ,10.1 ,6.6 
2003/1/1,5:30:00,7.5 ,43.0 ,8.2 ,10.1 ,6.5 
2003/1/1,5:45:00,7.5 ,43.1 ,8.1 ,10.1 ,6.5 
2003/1/1,6:00:00,7.4 ,42.9 ,8.1 ,10.0 ,6.4 
2003/1/1,6:15:00,7.4 ,43.0 ,8.1 ,10.1 ,6.4 
2003/1/1,6:30:00,7.3 ,43.1 ,8.0 ,10.1 ,6.4 
2003/1/1,6:45:00,7.3 ,43.1 ,8.0 ,10.0 ,6.3 
2003/1/1,7:00:00,7.3 ,43.2 ,7.9 ,10.1 ,6.3 
2003/1/1,7:15:00,7.2 ,43.2 ,7.9 ,10.1 ,6.3 
2003/1/1,7:30:00,7.2 ,43.1 ,7.9 ,10.1 ,6.2 
2003/1/1,7:45:00,7.2 ,43.1 ,7.8 ,10.0 ,6.3 
2003/1/1,8:00:00,7.2 ,43.1 ,7.8 ,10.0 ,6.4 
2003/1/1,8:15:00,7.2 ,43.2 ,7.8 ,10.0 ,6.4 
2003/1/1,8:30:00,7.1 ,43.3 ,7.8 ,10.0 ,6.3 
2003/1/1,8:45:00,7.1 ,43.1 ,7.8 ,10.0 ,6.3 
2003/1/1,9:00:00,7.1 ,43.1 ,7.8 ,10.0 ,6.3 
2003/1/1,9:15:00,7.1 ,42.9 ,7.7 ,10.0 ,6.5 
2003/1/1,9:30:00,7.2 ,42.8 ,7.8 ,10.0 ,6.9 
2003/1/1,9:45:00,7.2 ,42.7 ,7.8 ,10.0 ,7.1 
2003/1/1,10:00:00,7.2 ,42.6 ,7.8 ,10.0 ,7.3 
2003/1/1,10:15:00,7.3 ,42.8 ,7.8 ,10.0 ,7.4 
2003/1/1,10:30:00,7.3 ,43.0 ,7.9 ,10.0 ,7.5 
2003/1/1,10:45:00,7.3 ,43.3 ,7.9 ,10.0 ,7.5 
2003/1/1,11:00:00,7.4 ,43.5 ,8.0 ,10.0 ,7.6 
2003/1/1,11:15:00,7.4 ,43.6 ,8.0 ,10.0 ,7.7 
2003/1/1,11:30:00,7.5 ,43.6 ,8.1 ,10.0 ,7.8 
2003/1/1,11:45:00,7.5 ,43.8 ,8.1 ,10.0 ,7.9 
2003/1/1,12:00:00,7.5 ,43.8 ,8.2 ,10.0 ,7.9 
2003/1/1,12:15:00,7.6 ,43.8 ,8.3 ,10.0 ,8.0 
2003/1/1,12:30:00,7.6 ,44.0 ,8.3 ,10.0 ,8.1 
2003/1/1,12:45:00,7.7 ,44.0 ,8.4 ,10.0 ,8.2 
2003/1/1,13:00:00,7.7 ,44.0 ,8.4 ,10.0 ,8.2 
2003/1/1,13:15:00,7.8 ,44.0 ,8.5 ,10.0 ,8.3 
2003/1/1,13:30:00,7.8 ,44.1 ,8.5 ,10.0 ,8.3 
2003/1/1,13:45:00,7.9 ,44.1 ,8.6 ,10.0 ,8.4 
2003/1/1,14:00:00,7.9 ,44.1 ,8.6 ,10.0 ,8.5 
2003/1/1,14:15:00,8.0 ,44.1 ,8.7 ,10.0 ,8.5 
2003/1/1,14:30:00,8.0 ,43.9 ,8.7 ,10.0 ,8.5 
2003/1/1,14:45:00,8.0 ,44.1 ,8.7 ,10.1 ,8.5 
2003/1/1,15:00:00,8.1 ,44.1 ,8.8 ,10.1 ,8.5 
2003/1/1,15:15:00,8.1 ,44.0 ,8.8 ,10.1 ,8.5 
2003/1/1,15:30:00,8.1 ,44.0 ,8.8 ,10.1 ,8.4 
2003/1/1,15:45:00,8.1 ,44.0 ,8.8 ,10.1 ,8.4 
2003/1/1,16:00:00,8.2 ,44.1 ,8.9 ,10.1 ,8.4 
2003/1/1,16:15:00,8.2 ,44.0 ,8.9 ,10.1 ,8.3 
2003/1/1,16:30:00,8.2 ,44.1 ,8.9 ,10.1 ,8.3 
2003/1/1,16:45:00,8.2 ,44.0 ,8.9 ,10.1 ,8.3 
2003/1/1,17:00:00,8.2 ,43.9 ,8.9 ,10.1 ,8.2 
2003/1/1,17:15:00,8.2 ,43.8 ,8.9 ,10.1 ,8.2 
2003/1/1,17:30:00,8.2 ,43.7 ,8.9 ,10.2 ,8.2 
2003/1/1,17:45:00,8.2 ,43.7 ,8.9 ,10.2 ,8.2 
2003/1/1,18:00:00,8.2 ,43.6 ,8.9 ,10.2 ,8.2 
2003/1/1,18:15:00,8.2 ,43.6 ,8.9 ,10.2 ,8.1 
2003/1/1,18:30:00,8.2 ,43.6 ,8.9 ,10.2 ,8.1 
2003/1/1,18:45:00,8.2 ,43.5 ,8.9 ,10.2 ,8.1 
2003/1/1,19:00:00,8.2 ,43.6 ,8.9 ,10.2 ,8.0 
2003/1/1,19:15:00,8.2 ,43.6 ,8.8 ,10.2 ,8.0 
2003/1/1,19:30:00,8.2 ,43.6 ,8.8 ,10.2 ,7.9 
2003/1/1,19:45:00,8.2 ,43.8 ,8.8 ,10.2 ,7.9 
2003/1/1,20:00:00,8.1 ,43.7 ,8.8 ,10.2 ,7.9 
2003/1/1,20:15:00,8.1 ,43.8 ,8.8 ,10.2 ,7.8 
2003/1/1,20:30:00,8.1 ,43.7 ,8.8 ,10.2 ,7.8 
2003/1/1,20:45:00,8.1 ,43.7 ,8.8 ,10.2 ,7.7 
2003/1/1,21:00:00,8.1 ,43.8 ,8.8 ,10.3 ,7.7 
2003/1/1,21:15:00,8.1 ,43.7 ,8.7 ,10.3 ,7.7 
2003/1/1,21:30:00,8.1 ,43.7 ,8.7 ,10.3 ,7.6 
2003/1/1,21:45:00,8.0 ,43.7 ,8.7 ,10.3 ,7.6 
2003/1/1,22:00:00,8.0 ,43.7 ,8.7 ,10.3 ,7.6 
2003/1/1,22:15:00,8.0 ,43.8 ,8.7 ,10.3 ,7.5 
2003/1/1,22:30:00,8.0 ,43.8 ,8.7 ,10.3 ,7.5 
2003/1/1,22:45:00,8.0 ,43.9 ,8.6 ,10.3 ,7.5 
2003/1/1,23:00:00,8.0 ,44.0 ,8.6 ,10.3 ,7.4 
2003/1/1,23:15:00,8.0 ,44.0 ,8.6 ,10.3 ,7.4 
2003/1/1,23:30:00,7.9 ,44.1 ,8.6 ,10.3 ,7.4 
2003/1/1,23:45:00,7.9 ,44.2 ,8.6 ,10.3 ,7.3 
2003/1/2,0:00:00,7.9 ,44.3 ,8.5 ,10.3 ,7.3 
2003/1/2,0:15:00,7.9 ,44.3 ,8.5 ,10.3 ,7.3 
2003/1/2,0:30:00,7.9 ,44.5 ,8.5 ,10.3 ,7.2 
2003/1/2,0:45:00,7.9 ,44.6 ,8.5 ,10.3 ,7.2 
2003/1/2,1:00:00,7.8 ,44.6 ,8.5 ,10.3 ,7.2 
2003/1/2,1:15:00,7.8 ,44.7 ,8.4 ,10.3 ,7.2 
2003/1/2,1:30:00,7.8 ,44.7 ,8.4 ,10.3 ,7.1 
2003/1/2,1:45:00,7.8 ,44.7 ,8.4 ,10.3 ,7.1 
2003/1/2,2:00:00,7.7 ,44.8 ,8.4 ,10.3 ,7.1 
2003/1/2,2:15:00,7.7 ,44.8 ,8.3 ,10.3 ,7.0 
2003/1/2,2:30:00,7.7 ,44.9 ,8.3 ,10.3 ,7.0 
2003/1/2,2:45:00,7.7 ,44.9 ,8.3 ,10.3 ,7.0 
2003/1/2,3:00:00,7.6 ,45.1 ,8.3 ,10.3 ,6.9 
2003/1/2,3:15:00,7.6 ,45.2 ,8.2 ,10.3 ,6.9 
2003/1/2,3:30:00,7.6 ,45.3 ,8.2 ,10.3 ,6.9 
2003/1/2,3:45:00,7.6 ,45.2 ,8.2 ,10.3 ,6.8 
2003/1/2,4:00:00,7.5 ,45.3 ,8.2 ,10.3 ,6.8 
2003/1/2,4:15:00,7.5 ,45.3 ,8.1 ,10.3 ,6.8 
2003/1/2,4:30:00,7.5 ,45.0 ,8.1 ,10.3 ,6.7 
2003/1/2,4:45:00,7.4 ,44.9 ,8.1 ,10.3 ,6.7 
2003/1/2,5:00:00,7.4 ,45.1 ,8.1 ,10.3 ,6.7 
2003/1/2,5:15:00,7.4 ,45.2 ,8.0 ,10.3 ,6.7 
2003/1/2,5:30:00,7.3 ,45.4 ,8.0 ,10.3 ,6.6 
2003/1/2,5:45:00,7.3 ,45.1 ,7.9 ,10.3 ,6.6 
2003/1/2,6:00:00,7.3 ,45.1 ,7.9 ,10.3 ,6.5 
2003/1/2,6:15:00,7.2 ,45.0 ,7.9 ,10.3 ,6.5 
2003/1/2,6:30:00,7.2 ,45.1 ,7.8 ,10.3 ,6.5 
2003/1/2,6:45:00,7.2 ,44.9 ,7.8 ,10.3 ,6.4 
2003/1/2,7:00:00,7.1 ,44.6 ,7.8 ,10.3 ,6.4 
2003/1/2,7:15:00,7.1 ,44.6 ,7.7 ,10.3 ,6.3 
2003/1/2,7:30:00,7.0 ,44.7 ,7.7 ,10.2 ,6.3 
2003/1/2,7:45:00,7.0 ,44.7 ,7.6 ,10.2 ,6.2 
2003/1/2,8:00:00,6.9 ,44.9 ,7.6 ,10.2 ,6.1 
2003/1/2,8:15:00,6.9 ,44.9 ,7.6 ,10.2 ,6.1 
2003/1/2,8:30:00,6.9 ,44.8 ,7.5 ,10.2 ,6.0 
2003/1/2,8:45:00,6.9 ,44.4 ,7.5 ,10.2 ,6.0 
2003/1/2,9:00:00,6.8 ,44.2 ,7.5 ,10.2 ,6.0 
2003/1/2,9:15:00,6.8 ,44.1 ,7.5 ,10.2 ,6.0 
2003/1/2,9:30:00,6.8 ,44.0 ,7.4 ,10.2 ,6.0 
2003/1/2,9:45:00,6.8 ,43.9 ,7.4 ,10.2 ,6.0 
2003/1/2,10:00:00,6.8 ,43.9 ,7.4 ,10.2 ,6.0 
2003/1/2,10:15:00,6.8 ,43.9 ,7.4 ,10.2 ,5.9 
2003/1/2,10:30:00,6.8 ,43.7 ,7.4 ,10.2 ,5.9 
2003/1/2,10:45:00,6.8 ,43.7 ,7.4 ,10.1 ,5.9 
2003/1/2,11:00:00,6.7 ,43.8 ,7.3 ,10.1 ,5.9 
2003/1/2,11:15:00,6.7 ,43.8 ,7.3 ,10.1 ,5.9 
2003/1/2,11:30:00,6.7 ,43.8 ,7.3 ,10.1 ,5.9 
2003/1/2,11:45:00,6.7 ,43.8 ,7.3 ,10.1 ,5.9 
2003/1/2,12:00:00,6.7 ,44.0 ,7.3 ,10.1 ,5.8 
2003/1/2,12:15:00,6.7 ,43.8 ,7.3 ,10.1 ,5.8 
2003/1/2,12:30:00,6.7 ,43.8 ,7.3 ,10.1 ,5.9 
2003/1/2,12:45:00,6.7 ,43.7 ,7.3 ,10.1 ,5.8 
2003/1/2,13:00:00,6.7 ,43.7 ,7.3 ,10.1 ,5.8 
2003/1/2,13:15:00,6.7 ,43.6 ,7.3 ,10.0 ,5.8 
2003/1/2,13:30:00,6.7 ,43.6 ,7.3 ,10.0 ,5.9 
2003/1/2,13:45:00,6.7 ,43.8 ,7.3 ,10.0 ,5.9 
2003/1/2,14:00:00,6.7 ,43.7 ,7.3 ,10.0 ,5.9 
2003/1/2,14:15:00,6.7 ,43.6 ,7.3 ,10.0 ,5.9 
2003/1/2,14:30:00,6.6 ,43.4 ,7.3 ,10.0 ,5.9 
2003/1/2,14:45:00,6.6 ,43.3 ,7.3 ,10.0 ,5.9 
2003/1/2,15:00:00,6.6 ,43.3 ,7.3 ,10.0 ,5.9 
2003/1/2,15:15:00,6.6 ,43.2 ,7.3 ,9.9 ,5.9 
2003/1/2,15:30:00,6.6 ,43.2 ,7.3 ,9.9 ,5.9 
2003/1/2,15:45:00,6.6 ,43.2 ,7.3 ,9.9 ,5.9 
2003/1/2,16:00:00,6.6 ,43.2 ,7.2 ,9.9 ,5.8 
2003/1/2,16:15:00,6.6 ,43.1 ,7.2 ,9.9 ,5.8 
2003/1/2,16:30:00,6.5 ,43.1 ,7.2 ,9.9 ,5.7 
2003/1/2,16:45:00,6.5 ,43.1 ,7.2 ,9.9 ,5.7 
2003/1/2,17:00:00,6.4 ,43.1 ,7.1 ,9.9 ,5.6 
2003/1/2,17:15:00,6.4 ,43.1 ,7.1 ,9.9 ,5.6 
2003/1/2,17:30:00,6.3 ,43.2 ,7.1 ,9.9 ,5.5 
2003/1/2,17:45:00,6.3 ,43.3 ,7.0 ,9.9 ,5.5 
2003/1/2,18:00:00,6.3 ,43.4 ,7.0 ,9.9 ,5.5 
2003/1/2,18:15:00,6.3 ,43.5 ,7.0 ,9.8 ,5.4 
2003/1/2,18:30:00,6.2 ,43.6 ,6.9 ,9.8 ,5.4 
2003/1/2,18:45:00,6.2 ,43.7 ,6.9 ,9.8 ,5.3 
2003/1/2,19:00:00,6.2 ,43.8 ,6.9 ,9.8 ,5.3 
2003/1/2,19:15:00,6.1 ,43.8 ,6.8 ,9.8 ,5.2 
2003/1/2,19:30:00,6.1 ,43.8 ,6.8 ,9.8 ,5.2 
2003/1/2,19:45:00,6.0 ,43.8 ,6.8 ,9.8 ,5.1 
2003/1/2,20:00:00,6.0 ,43.9 ,6.7 ,9.8 ,5.1 
2003/1/2,20:15:00,6.0 ,44.0 ,6.7 ,9.8 ,5.0 
2003/1/2,20:30:00,5.9 ,44.0 ,6.7 ,9.7 ,5.0 
2003/1/2,20:45:00,5.9 ,43.9 ,6.6 ,9.7 ,5.0 
2003/1/2,21:00:00,5.9 ,44.0 ,6.6 ,9.7 ,5.0 
2003/1/2,21:15:00,5.8 ,44.1 ,6.6 ,9.7 ,4.9 
2003/1/2,21:30:00,5.8 ,44.0 ,6.5 ,9.7 ,4.9 
2003/1/2,21:45:00,5.8 ,44.0 ,6.5 ,9.7 ,4.9 
2003/1/2,22:00:00,5.8 ,43.9 ,6.5 ,9.7 ,4.8 
2003/1/2,22:15:00,5.7 ,44.0 ,6.4 ,9.6 ,4.8 
2003/1/2,22:30:00,5.7 ,44.1 ,6.4 ,9.6 ,4.8 
2003/1/2,22:45:00,5.6 ,44.0 ,6.4 ,9.6 ,4.8 
2003/1/2,23:00:00,5.6 ,44.1 ,6.3 ,9.6 ,4.7 
2003/1/2,23:15:00,5.5 ,44.1 ,6.3 ,9.6 ,4.6 
2003/1/2,23:30:00,5.5 ,44.1 ,6.3 ,9.6 ,4.6 
2003/1/2,23:45:00,5.5 ,44.2 ,6.2 ,9.6 ,4.6 
2003/1/3,0:00:00,5.4 ,44.0 ,6.2 ,9.6 ,4.5 
2003/1/3,0:15:00,5.4 ,44.2 ,6.1 ,9.6 ,4.5 
2003/1/3,0:30:00,5.4 ,44.0 ,6.1 ,9.6 ,4.5 
2003/1/3,0:45:00,5.3 ,44.0 ,6.1 ,9.5 ,4.5 
2003/1/3,1:00:00,5.3 ,44.0 ,6.0 ,9.5 ,4.4 
2003/1/3,1:15:00,5.3 ,44.0 ,6.0 ,9.5 ,4.4 
2003/1/3,1:30:00,5.2 ,44.0 ,6.0 ,9.5 ,4.4 
2003/1/3,1:45:00,5.2 ,44.1 ,5.9 ,9.5 ,4.4 
2003/1/3,2:00:00,5.2 ,44.1 ,5.9 ,9.4 ,4.3 
2003/1/3,2:15:00,5.1 ,44.1 ,5.9 ,9.4 ,4.3 
2003/1/3,2:30:00,5.1 ,44.1 ,5.9 ,9.4 ,4.3 
2003/1/3,2:45:00,5.1 ,44.1 ,5.8 ,9.4 ,4.2 
2003/1/3,3:00:00,5.0 ,44.2 ,5.8 ,9.4 ,4.2 
2003/1/3,3:15:00,5.0 ,44.2 ,5.8 ,9.4 ,4.2 
2003/1/3,3:30:00,5.0 ,44.2 ,5.7 ,9.4 ,4.2 
2003/1/3,3:45:00,4.9 ,44.2 ,5.7 ,9.3 ,4.2 
2003/1/3,4:00:00,4.9 ,44.2 ,5.7 ,9.3 ,4.2 
2003/1/3,4:15:00,4.9 ,44.2 ,5.7 ,9.3 ,4.2 
2003/1/3,4:30:00,4.9 ,44.1 ,5.6 ,9.3 ,4.1 
2003/1/3,4:45:00,4.8 ,44.1 ,5.6 ,9.3 ,4.1 
2003/1/3,5:00:00,4.8 ,44.0 ,5.6 ,9.3 ,4.1 
2003/1/3,5:15:00,4.8 ,44.1 ,5.5 ,9.3 ,4.1 
2003/1/3,5:30:00,4.8 ,44.0 ,5.5 ,9.2 ,4.1 
2003/1/3,5:45:00,4.8 ,44.0 ,5.5 ,9.2 ,4.1 
2003/1/3,6:00:00,4.7 ,43.9 ,5.5 ,9.2 ,4.1 
2003/1/3,6:15:00,4.7 ,43.9 ,5.4 ,9.2 ,4.1 
2003/1/3,6:30:00,4.7 ,43.9 ,5.4 ,9.2 ,4.1 
2003/1/3,6:45:00,4.7 ,43.9 ,5.4 ,9.2 ,4.1 
2003/1/3,7:00:00,4.7 ,43.8 ,5.4 ,9.1 ,4.1 
2003/1/3,7:15:00,4.6 ,43.8 ,5.4 ,9.1 ,4.1 
2003/1/3,7:30:00,4.6 ,43.7 ,5.3 ,9.1 ,4.1 
2003/1/3,7:45:00,4.6 ,43.7 ,5.3 ,9.1 ,4.0 
2003/1/3,8:00:00,4.6 ,43.7 ,5.3 ,9.1 ,4.0 
2003/1/3,8:15:00,4.6 ,43.7 ,5.3 ,9.1 ,4.0 
2003/1/3,8:30:00,4.6 ,43.8 ,5.3 ,9.0 ,4.2 
2003/1/3,8:45:00,4.6 ,43.7 ,5.3 ,9.0 ,4.3 
2003/1/3,9:00:00,4.7 ,43.7 ,5.3 ,9.0 ,4.5 
2003/1/3,9:15:00,4.7 ,43.7 ,5.3 ,9.0 ,4.7 
2003/1/3,9:30:00,4.7 ,43.7 ,5.4 ,9.0 ,4.8 
2003/1/3,9:45:00,4.8 ,43.6 ,5.4 ,8.9 ,5.0 
2003/1/3,10:00:00,4.8 ,43.6 ,5.5 ,8.9 ,5.1 
2003/1/3,10:15:00,4.8 ,43.7 ,5.5 ,8.9 ,5.2 
2003/1/3,10:30:00,4.9 ,43.8 ,5.6 ,8.9 ,5.2 
2003/1/3,10:45:00,4.9 ,43.9 ,5.7 ,8.9 ,5.2 
2003/1/3,11:00:00,4.9 ,43.9 ,5.7 ,8.9 ,5.2 
2003/1/3,11:15:00,5.0 ,44.0 ,5.8 ,8.9 ,5.2 
2003/1/3,11:30:00,5.0 ,44.1 ,5.9 ,8.9 ,5.3 
2003/1/3,11:45:00,5.1 ,44.1 ,5.9 ,8.9 ,5.4 
2003/1/3,12:00:00,5.1 ,44.1 ,6.0 ,8.8 ,5.5 
2003/1/3,12:15:00,5.2 ,44.0 ,6.0 ,8.8 ,5.5 
2003/1/3,12:30:00,5.2 ,44.0 ,6.1 ,8.8 ,5.6 
2003/1/3,12:45:00,5.2 ,44.0 ,6.2 ,8.8 ,5.7 
2003/1/3,13:00:00,5.3 ,44.1 ,6.2 ,8.8 ,5.8 
2003/1/3,13:15:00,5.4 ,44.3 ,6.3 ,8.8 ,5.8 
2003/1/3,13:30:00,5.4 ,44.3 ,6.3 ,8.8 ,5.8 
2003/1/3,13:45:00,5.5 ,44.2 ,6.4 ,8.8 ,5.9 
2003/1/3,14:00:00,5.5 ,44.2 ,6.4 ,8.8 ,5.9 
2003/1/3,14:15:00,5.6 ,44.2 ,6.5 ,8.8 ,5.9 
2003/1/3,14:30:00,5.6 ,44.3 ,6.5 ,8.8 ,5.9 
2003/1/3,14:45:00,5.6 ,44.3 ,6.5 ,8.8 ,5.9 
2003/1/3,15:00:00,5.6 ,44.3 ,6.5 ,8.8 ,5.9 
2003/1/3,15:15:00,5.7 ,44.3 ,6.6 ,8.8 ,5.9 
2003/1/3,15:30:00,5.7 ,44.3 ,6.6 ,8.8 ,5.8 
2003/1/3,15:45:00,5.7 ,44.2 ,6.6 ,8.8 ,5.8 
2003/1/3,16:00:00,5.7 ,44.2 ,6.6 ,8.8 ,5.8 
2003/1/3,16:15:00,5.7 ,44.2 ,6.6 ,8.8 ,5.8 
2003/1/3,16:30:00,5.7 ,44.2 ,6.6 ,8.8 ,5.8 
2003/1/3,16:45:00,5.8 ,44.1 ,6.6 ,8.8 ,5.8 
2003/1/3,17:00:00,5.8 ,44.1 ,6.6 ,8.8 ,5.8 
2003/1/3,17:15:00,5.8 ,44.1 ,6.6 ,8.8 ,5.8 
2003/1/3,17:30:00,5.8 ,44.1 ,6.6 ,8.8 ,5.8 
2003/1/3,17:45:00,5.8 ,44.2 ,6.6 ,8.8 ,5.8 
2003/1/3,18:00:00,5.8 ,44.2 ,6.6 ,8.8 ,5.7 
2003/1/3,18:15:00,5.8 ,44.2 ,6.6 ,8.8 ,5.8 
2003/1/3,18:30:00,5.9 ,44.4 ,6.7 ,8.8 ,5.8 
2003/1/3,18:45:00,5.9 ,44.3 ,6.7 ,8.8 ,5.8 
2003/1/3,19:00:00,5.9 ,44.3 ,6.7 ,8.8 ,5.8 
2003/1/3,19:15:00,5.9 ,44.4 ,6.7 ,8.8 ,5.8 
2003/1/3,19:30:00,5.9 ,44.5 ,6.7 ,8.8 ,5.8 
2003/1/3,19:45:00,5.9 ,44.7 ,6.7 ,8.8 ,5.8 
2003/1/3,20:00:00,6.3 ,46.5 ,6.9 ,6.1 ,6.0 
2003/1/3,20:15:00,7.3 ,47.2 ,7.5 ,6.2 ,7.6 
2003/1/3,20:30:00,7.9 ,49.4 ,8.3 ,6.3 ,8.8 
2003/1/3,20:45:00,8.3 ,46.6 ,9.1 ,6.3 ,9.7 
2003/1/3,21:00:00,8.8 ,46.6 ,9.8 ,6.4 ,10.6 
2003/1/3,21:15:00,9.6 ,46.5 ,10.5 ,6.5 ,11.4 
2003/1/3,21:30:00,10.6 ,45.9 ,11.6 ,6.5 ,12.5 
2003/1/3,21:45:00,11.5 ,46.0 ,12.4 ,6.6 ,13.3 
2003/1/3,22:00:00,12.2 ,47.1 ,13.4 ,6.7 ,13.7 
2003/1/3,22:15:00,13.1 ,45.6 ,14.3 ,6.7 ,14.5 
2003/1/3,22:30:00,13.7 ,44.8 ,14.9 ,6.8 ,15.2 
2003/1/3,22:45:00,14.3 ,43.9 ,15.8 ,6.9 ,16.0 
2003/1/3,23:00:00,14.7 ,44.0 ,16.3 ,7.0 ,19.0 
2003/1/3,23:15:00,15.3 ,43.0 ,16.8 ,7.0 ,18.4 
2003/1/3,23:30:00,15.1 ,43.2 ,17.1 ,6.2 ,17.9 
2003/1/3,23:45:00,15.2 ,43.3 ,17.0 ,6.3 ,16.9 
2003/1/4,0:00:00,15.5 ,42.6 ,17.1 ,6.5 ,16.9 
2003/1/4,0:15:00,15.7 ,41.3 ,17.2 ,6.6 ,17.0 
2003/1/4,0:30:00,15.8 ,42.0 ,17.1 ,6.7 ,16.7 
2003/1/4,0:45:00,16.1 ,41.7 ,17.3 ,6.9 ,17.2 
2003/1/4,1:00:00,16.1 ,41.0 ,17.5 ,7.0 ,17.3 
2003/1/4,1:15:00,16.3 ,41.5 ,17.5 ,7.1 ,17.1 
2003/1/4,1:30:00,16.7 ,41.5 ,17.7 ,7.3 ,17.3 
2003/1/4,1:45:00,16.5 ,41.7 ,17.6 ,7.4 ,16.9 
2003/1/4,2:00:00,16.9 ,41.2 ,17.8 ,7.5 ,17.5 
2003/1/4,2:15:00,16.6 ,41.2 ,17.9 ,7.7 ,17.3 
2003/1/4,2:30:00,17.1 ,40.8 ,18.0 ,7.8 ,17.4 
2003/1/4,2:45:00,17.4 ,39.9 ,18.2 ,7.9 ,17.9 
2003/1/4,3:00:00,17.4 ,40.8 ,18.2 ,8.0 ,17.5 
2003/1/4,3:15:00,17.7 ,40.6 ,18.4 ,8.2 ,18.1 
2003/1/4,3:30:00,17.5 ,40.7 ,18.5 ,8.3 ,18.0 
2003/1/4,3:45:00,18.0 ,40.5 ,18.6 ,8.4 ,18.3 
2003/1/4,4:00:00,17.9 ,39.6 ,18.8 ,8.5 ,18.3 
2003/1/4,4:15:00,18.1 ,40.4 ,18.8 ,8.6 ,18.2 
2003/1/4,4:30:00,18.4 ,40.1 ,19.0 ,8.7 ,18.8 
2003/1/4,4:45:00,18.1 ,40.2 ,19.0 ,8.9 ,18.6 
2003/1/4,5:00:00,18.7 ,39.5 ,19.1 ,9.0 ,18.7 
2003/1/4,5:15:00,18.9 ,39.5 ,19.3 ,9.1 ,19.2 
2003/1/4,5:30:00,19.2 ,39.0 ,19.5 ,9.2 ,19.5 
2003/1/4,5:45:00,18.8 ,39.7 ,19.6 ,9.3 ,19.1 
2003/1/4,6:00:00,19.3 ,39.3 ,19.6 ,9.4 ,19.2 
2003/1/4,6:15:00,19.6 ,38.6 ,19.8 ,9.5 ,19.5 
2003/1/4,6:30:00,19.7 ,38.9 ,19.9 ,9.6 ,19.7 
2003/1/4,6:45:00,19.9 ,38.6 ,20.1 ,9.7 ,19.9 
2003/1/4,7:00:00,20.1 ,38.3 ,20.3 ,9.8 ,20.1 
2003/1/4,7:15:00,19.8 ,38.4 ,20.4 ,9.9 ,20.0 
2003/1/4,7:30:00,19.8 ,39.1 ,20.3 ,6.8 ,19.5 
2003/1/4,7:45:00,20.3 ,39.7 ,20.5 ,7.1 ,19.8 
2003/1/4,8:00:00,20.5 ,39.7 ,20.6 ,7.3 ,20.2 
2003/1/4,8:15:00,20.8 ,40.3 ,20.8 ,7.6 ,20.6 
2003/1/4,8:30:00,21.0 ,40.3 ,21.0 ,7.8 ,20.6 
2003/1/4,8:45:00,21.1 ,40.2 ,21.1 ,8.0 ,20.6 
2003/1/4,9:00:00,20.6 ,39.9 ,21.2 ,8.2 ,26.4 
2003/1/4,9:15:00,21.3 ,39.7 ,21.2 ,8.4 ,23.9 
2003/1/4,9:30:00,21.7 ,39.4 ,21.2 ,8.5 ,22.7 
2003/1/4,9:45:00,21.9 ,39.0 ,21.3 ,8.7 ,22.1 
2003/1/4,10:00:00,22.1 ,38.6 ,21.4 ,8.9 ,22.9 
2003/1/4,10:15:00,22.1 ,38.5 ,21.5 ,6.8 ,22.8 
2003/1/4,10:30:00,22.3 ,38.2 ,21.5 ,7.1 ,22.1 
2003/1/4,10:45:00,22.4 ,38.3 ,21.6 ,6.7 ,21.7 
2003/1/4,11:00:00,22.3 ,39.7 ,21.6 ,7.0 ,21.6 
2003/1/4,11:15:00,22.6 ,39.4 ,21.7 ,7.2 ,21.5 
2003/1/4,11:30:00,22.4 ,41.2 ,21.8 ,7.5 ,21.5 
2003/1/4,11:45:00,22.4 ,41.5 ,21.7 ,7.7 ,21.1 
2003/1/4,12:00:00,22.5 ,41.9 ,21.8 ,7.0 ,21.2 
2003/1/4,12:15:00,22.5 ,42.2 ,21.9 ,7.2 ,21.3 
2003/1/4,12:30:00,22.6 ,42.3 ,22.0 ,7.5 ,21.5 
2003/1/4,12:45:00,22.1 ,44.3 ,22.0 ,7.7 ,21.1 
2003/1/4,13:00:00,22.5 ,42.4 ,21.9 ,7.1 ,24.2 
2003/1/4,13:15:00,22.6 ,42.4 ,21.9 ,7.3 ,27.8 
2003/1/4,13:30:00,22.7 ,42.8 ,22.0 ,7.6 ,24.5 
2003/1/4,13:45:00,22.8 ,42.7 ,22.1 ,7.8 ,23.1 
2003/1/4,14:00:00,22.6 ,43.2 ,22.1 ,8.1 ,22.6 
2003/1/4,14:15:00,22.7 ,41.8 ,22.0 ,8.3 ,23.8 
2003/1/4,14:30:00,23.0 ,41.7 ,22.1 ,8.5 ,23.2 
2003/1/4,14:45:00,22.9 ,42.8 ,22.1 ,8.7 ,22.6 
2003/1/4,15:00:00,22.9 ,42.4 ,22.2 ,8.9 ,22.1 
2003/1/4,15:15:00,23.0 ,41.4 ,22.2 ,9.1 ,22.0 
2003/1/4,15:30:00,23.0 ,40.7 ,22.2 ,9.3 ,21.9 
2003/1/4,15:45:00,22.5 ,41.6 ,22.2 ,9.5 ,21.6 
2003/1/4,16:00:00,22.8 ,40.3 ,22.1 ,9.7 ,21.5 
2003/1/4,16:15:00,22.8 ,40.4 ,22.1 ,9.8 ,21.5 
2003/1/4,16:30:00,22.9 ,40.1 ,22.1 ,10.0 ,21.6 
2003/1/4,16:45:00,22.6 ,40.0 ,22.2 ,10.2 ,21.6 
2003/1/4,17:00:00,21.7 ,41.6 ,22.0 ,8.0 ,21.0 
2003/1/4,17:15:00,22.6 ,39.9 ,22.0 ,8.3 ,21.1 
2003/1/4,17:30:00,22.7 ,39.6 ,22.1 ,8.5 ,21.3 
2003/1/4,17:45:00,22.9 ,38.8 ,22.1 ,7.2 ,21.5 
2003/1/4,18:00:00,22.2 ,40.2 ,22.1 ,7.5 ,21.2 
2003/1/4,18:15:00,22.8 ,38.6 ,22.0 ,7.7 ,21.1 
2003/1/4,18:30:00,22.9 ,38.7 ,22.1 ,8.0 ,21.3 
2003/1/4,18:45:00,23.0 ,38.7 ,22.1 ,8.2 ,21.5 
2003/1/4,19:00:00,22.5 ,38.3 ,22.1 ,6.7 ,24.7 
2003/1/4,19:15:00,22.7 ,39.4 ,22.0 ,7.1 ,24.5 
2003/1/4,19:30:00,23.0 ,38.3 ,22.0 ,7.4 ,23.2 
2003/1/4,19:45:00,22.9 ,38.8 ,22.1 ,7.6 ,22.5 
2003/1/4,20:00:00,22.2 ,39.4 ,22.1 ,7.9 ,22.0 
2003/1/4,20:15:00,22.9 ,37.8 ,22.0 ,8.1 ,21.6 
2003/1/4,20:30:00,22.9 ,38.1 ,22.1 ,8.4 ,21.5 
2003/1/4,20:45:00,22.4 ,39.1 ,22.1 ,8.6 ,21.3 
2003/1/4,21:00:00,22.8 ,40.1 ,22.0 ,8.8 ,20.9 
2003/1/4,21:15:00,22.6 ,39.6 ,22.0 ,9.0 ,21.1 
2003/1/4,21:30:00,22.8 ,39.3 ,22.0 ,7.2 ,21.0 
2003/1/4,21:45:00,23.2 ,37.4 ,22.0 ,7.5 ,21.1 
2003/1/4,22:00:00,22.2 ,39.7 ,21.9 ,7.8 ,20.6 
2003/1/4,22:15:00,22.6 ,38.7 ,21.9 ,8.1 ,20.5 
2003/1/4,22:30:00,22.8 ,38.2 ,21.9 ,8.3 ,20.5 
2003/1/4,22:45:00,22.1 ,38.3 ,21.9 ,8.5 ,20.4 
2003/1/4,23:00:00,22.6 ,36.7 ,21.8 ,8.8 ,20.0 
2003/1/4,23:15:00,22.6 ,37.0 ,21.7 ,9.0 ,20.0 
2003/1/4,23:30:00,22.3 ,37.1 ,21.7 ,9.2 ,20.1 
2003/1/4,23:45:00,22.3 ,37.2 ,21.6 ,9.4 ,19.8 
2003/1/5,0:00:00,22.7 ,36.5 ,21.5 ,9.6 ,20.2 
2003/1/5,0:15:00,22.8 ,35.9 ,21.4 ,9.8 ,20.3 
2003/1/5,0:30:00,21.9 ,36.4 ,21.3 ,9.9 ,20.2 
2003/1/5,0:45:00,22.2 ,36.7 ,21.2 ,10.1 ,19.8 
2003/1/5,1:00:00,22.2 ,36.5 ,21.3 ,10.3 ,19.8 
2003/1/5,1:15:00,21.6 ,36.5 ,21.3 ,10.5 ,20.0 
2003/1/5,1:30:00,21.8 ,36.7 ,21.3 ,10.7 ,19.7 
2003/1/5,1:45:00,22.0 ,36.2 ,21.3 ,10.9 ,20.1 
2003/1/5,2:00:00,21.4 ,36.3 ,21.3 ,11.0 ,20.0 
2003/1/5,2:15:00,21.3 ,36.8 ,21.2 ,11.2 ,19.3 
2003/1/5,2:30:00,21.7 ,36.1 ,21.2 ,11.4 ,19.5 
2003/1/5,2:45:00,21.0 ,36.2 ,21.2 ,11.5 ,19.5 
2003/1/5,3:00:00,21.4 ,36.2 ,21.1 ,11.7 ,19.4 
2003/1/5,3:15:00,21.5 ,35.9 ,21.1 ,11.8 ,19.7 
2003/1/5,3:30:00,21.1 ,35.8 ,21.1 ,11.9 ,19.8 
2003/1/5,3:45:00,20.4 ,36.7 ,20.9 ,12.1 ,18.9 
2003/1/5,4:00:00,21.2 ,35.8 ,20.9 ,12.2 ,19.2 
2003/1/5,4:15:00,21.3 ,35.5 ,21.0 ,12.3 ,19.4 
2003/1/5,4:30:00,20.5 ,36.4 ,20.8 ,12.5 ,19.0 
2003/1/5,4:45:00,21.2 ,35.5 ,20.9 ,12.6 ,19.3 
2003/1/5,5:00:00,21.3 ,35.1 ,20.9 ,12.7 ,19.6 
2003/1/5,5:15:00,20.4 ,36.2 ,20.9 ,12.8 ,19.3 
2003/1/5,5:30:00,20.5 ,36.0 ,20.7 ,12.9 ,18.8 
2003/1/5,5:45:00,21.0 ,35.1 ,20.7 ,13.0 ,19.2 
2003/1/5,6:00:00,21.1 ,35.0 ,20.8 ,13.1 ,19.2 
2003/1/5,6:15:00,20.3 ,35.6 ,20.8 ,13.2 ,19.2 
2003/1/5,6:30:00,20.4 ,35.6 ,20.6 ,13.3 ,18.7 
2003/1/5,6:45:00,20.9 ,34.9 ,20.7 ,9.0 ,19.2 
2003/1/5,7:00:00,21.0 ,34.7 ,20.8 ,9.1 ,19.5 
2003/1/5,7:15:00,21.1 ,34.7 ,20.9 ,9.3 ,19.7 
2003/1/5,7:30:00,20.8 ,34.2 ,21.0 ,9.5 ,19.9 
2003/1/5,7:45:00,20.1 ,35.5 ,20.7 ,6.9 ,19.0 
2003/1/5,8:00:00,20.9 ,34.5 ,20.8 ,7.2 ,19.4 
2003/1/5,8:15:00,21.2 ,34.0 ,20.9 ,7.5 ,19.7 
2003/1/5,8:30:00,21.3 ,34.0 ,21.0 ,7.7 ,19.9 
2003/1/5,8:45:00,21.5 ,33.9 ,21.1 ,8.0 ,20.1 
2003/1/5,9:00:00,20.5 ,34.7 ,21.1 ,8.2 ,19.8 
2003/1/5,9:15:00,20.8 ,34.7 ,20.9 ,9.3 ,19.2 
2003/1/5,9:30:00,21.1 ,34.4 ,21.0 ,6.9 ,21.2 
2003/1/5,9:45:00,21.3 ,34.2 ,21.1 ,7.2 ,23.5 
2003/1/5,10:00:00,21.5 ,34.4 ,21.2 ,7.5 ,22.4 
2003/1/5,10:15:00,21.7 ,33.7 ,21.3 ,7.7 ,21.5 
2003/1/5,10:30:00,20.7 ,34.5 ,21.3 ,8.0 ,20.6 
2003/1/5,10:45:00,21.2 ,34.2 ,21.2 ,8.2 ,20.0 
2003/1/5,11:00:00,21.5 ,33.9 ,21.2 ,8.4 ,20.2 
2003/1/5,11:15:00,21.6 ,34.0 ,21.3 ,8.6 ,20.1 
2003/1/5,11:30:00,21.8 ,34.1 ,21.4 ,8.8 ,20.4 
2003/1/5,11:45:00,21.7 ,34.2 ,21.5 ,9.0 ,20.6 
2003/1/5,12:00:00,21.9 ,33.8 ,21.6 ,9.2 ,20.5 
2003/1/5,12:15:00,21.3 ,34.5 ,21.6 ,9.4 ,20.2 
2003/1/5,12:30:00,21.8 ,35.0 ,21.6 ,9.6 ,20.1 
2003/1/5,12:45:00,21.8 ,35.8 ,21.6 ,6.8 ,20.4 
2003/1/5,13:00:00,22.2 ,35.3 ,21.7 ,7.2 ,20.6 
2003/1/5,13:15:00,22.2 ,35.8 ,21.8 ,6.5 ,20.7 
2003/1/5,13:30:00,22.2 ,35.8 ,21.8 ,6.9 ,20.8 
2003/1/5,13:45:00,22.2 ,36.1 ,21.9 ,6.3 ,20.8 
2003/1/5,14:00:00,22.0 ,35.7 ,22.0 ,6.7 ,21.2 
2003/1/5,14:15:00,22.2 ,35.7 ,21.9 ,7.0 ,20.7 
2003/1/5,14:30:00,22.3 ,35.0 ,21.9 ,7.2 ,20.8 
2003/1/5,14:45:00,22.3 ,35.4 ,21.8 ,7.5 ,22.1 
2003/1/5,15:00:00,22.4 ,35.8 ,21.7 ,7.8 ,22.0 
2003/1/5,15:15:00,22.2 ,36.7 ,21.6 ,8.0 ,21.4 
2003/1/5,15:30:00,21.7 ,36.8 ,21.4 ,6.4 ,20.6 
2003/1/5,15:45:00,22.2 ,35.5 ,21.4 ,6.7 ,21.7 
2003/1/5,16:00:00,22.3 ,35.1 ,21.5 ,6.3 ,22.3 
2003/1/5,16:15:00,22.3 ,34.2 ,21.7 ,6.7 ,22.0 
2003/1/5,16:30:00,22.3 ,34.4 ,21.8 ,7.0 ,21.8 
2003/1/5,16:45:00,22.4 ,34.1 ,21.9 ,6.5 ,21.8 
2003/1/5,17:00:00,22.1 ,34.4 ,21.9 ,6.8 ,21.5 
2003/1/5,17:15:00,21.7 ,34.8 ,21.7 ,7.0 ,20.7 
2003/1/5,17:30:00,22.1 ,33.9 ,21.7 ,7.3 ,22.6 
2003/1/5,17:45:00,22.4 ,33.7 ,21.8 ,7.6 ,23.6 
2003/1/5,18:00:00,22.6 ,33.2 ,21.7 ,7.8 ,22.9 
2003/1/5,18:15:00,22.9 ,32.9 ,21.7 ,8.0 ,22.4 
2003/1/5,18:30:00,22.8 ,33.0 ,21.7 ,8.3 ,22.1 
2003/1/5,18:45:00,22.3 ,33.5 ,21.6 ,8.4 ,21.6 
2003/1/5,19:00:00,22.7 ,32.4 ,21.5 ,8.7 ,21.1 
2003/1/5,19:15:00,22.7 ,32.2 ,21.5 ,6.7 ,21.1 
2003/1/5,19:30:00,22.8 ,33.0 ,21.5 ,7.0 ,21.2 
2003/1/5,19:45:00,23.0 ,32.7 ,21.5 ,7.3 ,21.3 
2003/1/5,20:00:00,23.1 ,33.5 ,21.6 ,7.6 ,21.4 
2003/1/5,20:15:00,22.0 ,34.2 ,21.6 ,7.8 ,21.0 
2003/1/5,20:30:00,22.3 ,33.8 ,21.6 ,8.1 ,20.5 
2003/1/5,20:45:00,22.5 ,33.4 ,21.6 ,8.3 ,20.8 
2003/1/5,21:00:00,22.6 ,33.2 ,21.7 ,7.1 ,21.0 
2003/1/5,21:15:00,22.6 ,33.3 ,21.8 ,7.4 ,20.9 
2003/1/5,21:30:00,22.7 ,32.2 ,21.9 ,7.6 ,20.8 
2003/1/5,21:45:00,21.7 ,33.4 ,21.8 ,7.9 ,20.3 
2003/1/5,22:00:00,22.0 ,33.2 ,21.6 ,8.2 ,20.0 
2003/1/5,22:15:00,22.1 ,32.9 ,21.7 ,8.4 ,20.5 
2003/1/5,22:30:00,21.9 ,32.7 ,21.7 ,8.6 ,20.7 
2003/1/5,22:45:00,21.3 ,33.7 ,21.6 ,8.8 ,20.1 
2003/1/5,23:00:00,20.9 ,34.1 ,21.4 ,9.0 ,19.8 
2003/1/5,23:15:00,20.9 ,34.3 ,21.3 ,9.2 ,19.6 
2003/1/5,23:30:00,20.9 ,34.2 ,21.3 ,9.4 ,19.6 
2003/1/5,23:45:00,20.9 ,34.1 ,21.2 ,9.6 ,19.6 
2003/1/6,0:00:00,20.0 ,34.4 ,21.0 ,9.8 ,19.2 
2003/1/6,0:15:00,21.0 ,33.5 ,20.9 ,9.9 ,19.2 
2003/1/6,0:30:00,21.2 ,33.0 ,20.8 ,10.1 ,19.4 
2003/1/6,0:45:00,21.1 ,33.4 ,20.8 ,10.3 ,19.5 
2003/1/6,1:00:00,21.2 ,33.1 ,20.8 ,10.5 ,19.6 
2003/1/6,1:15:00,21.4 ,32.5 ,20.8 ,10.7 ,19.6 
2003/1/6,1:30:00,21.1 ,32.8 ,20.8 ,10.8 ,19.7 
2003/1/6,1:45:00,20.7 ,33.7 ,20.7 ,11.0 ,19.4 
2003/1/6,2:00:00,20.7 ,33.6 ,20.7 ,11.2 ,19.4 
2003/1/6,2:15:00,20.7 ,33.4 ,20.7 ,11.3 ,19.3 
2003/1/6,2:30:00,20.8 ,32.8 ,20.7 ,11.5 ,19.3 
2003/1/6,2:45:00,20.3 ,33.8 ,20.6 ,11.6 ,19.1 
2003/1/6,3:00:00,20.5 ,33.5 ,20.5 ,11.7 ,19.1 
2003/1/6,3:15:00,20.9 ,32.7 ,20.5 ,11.9 ,19.2 
2003/1/6,3:30:00,21.1 ,32.3 ,20.6 ,12.0 ,19.4 
2003/1/6,3:45:00,21.0 ,32.3 ,20.6 ,12.1 ,19.5 
2003/1/6,4:00:00,20.3 ,33.6 ,20.5 ,12.2 ,19.2 
2003/1/6,4:15:00,20.5 ,32.9 ,20.5 ,12.4 ,19.1 
2003/1/6,4:30:00,20.8 ,32.3 ,20.4 ,12.5 ,19.2 
2003/1/6,4:45:00,20.8 ,32.7 ,20.5 ,12.6 ,19.4 
2003/1/6,5:00:00,20.1 ,33.3 ,20.4 ,12.7 ,19.2 
2003/1/6,5:15:00,20.2 ,33.2 ,20.4 ,12.8 ,19.2 
2003/1/6,5:30:00,20.2 ,33.5 ,20.4 ,12.9 ,19.2 
2003/1/6,5:45:00,20.1 ,33.5 ,20.4 ,13.0 ,19.2 
2003/1/6,6:00:00,20.3 ,33.3 ,20.3 ,13.1 ,19.2 
2003/1/6,6:15:00,19.9 ,34.0 ,20.3 ,8.9 ,19.0 
2003/1/6,6:30:00,20.0 ,33.7 ,20.3 ,9.1 ,18.9 
2003/1/6,6:45:00,19.9 ,33.5 ,20.3 ,7.2 ,18.9 
2003/1/6,7:00:00,19.9 ,33.4 ,20.3 ,7.5 ,19.0 
2003/1/6,7:15:00,19.8 ,33.9 ,20.2 ,7.7 ,18.9 
2003/1/6,7:30:00,19.9 ,34.5 ,20.2 ,6.6 ,19.0 
2003/1/6,7:45:00,20.0 ,35.1 ,20.2 ,6.9 ,19.1 
2003/1/6,8:00:00,20.4 ,34.5 ,20.2 ,7.2 ,19.2 
2003/1/6,8:15:00,19.8 ,35.8 ,20.2 ,7.4 ,19.2 
2003/1/6,8:30:00,19.9 ,35.8 ,20.2 ,7.7 ,19.1 
2003/1/6,8:45:00,19.9 ,36.0 ,20.1 ,7.9 ,19.2 
2003/1/6,9:00:00,19.9 ,35.8 ,20.1 ,8.2 ,19.4 